Location: *
(49.8044°N, 4.0558°E)
Time: 10:01:34
(UTC+00:00)

SPOT 1/Viking Rocket - Pass Details

Date: 09 April 2020
Orbit: 776 x 795 km, 98.5° (Epoch: 25 May)

Event Time Altitude Azimuth Distance (km) Brightness Sun altitude
Exits shadow 21:30:44 40° 216° (SW) 1,152 4.2 -25.2°
Maximum altitude 21:32:05 51° 260° (W) 1,000 4.2 -25.3°
Drops below altitude 10° 21:37:12 10° 336° (NNW) 2,377 7.0 -25.8°
Sets 21:39:37 0° 342° (NNW) 3,311 8.0 -26.1°
